Watauga Observed Data For Previous 48 Hours

Caption
Day and Hour Reservoir Elevation (behind dam)* Tailwater Elevation (below dam)* Average Hourly Discharge*
1/17/2018 2 AM EST 1,952.52 1,650.29 1,248
1/17/2018 3 AM EST 1,952.51 1,650.23 1,248
1/17/2018 4 AM EST 1,952.51 1,650.22 1,246
1/17/2018 5 AM EST 1,952.51 1,650.22 1,244
1/17/2018 6 AM EST 1,952.50 1,650.23 1,248
1/17/2018 7 AM EST 1,952.49 1,650.29 1,247
1/17/2018 8 AM EST 1,952.49 1,650.28 1,246
1/17/2018 9 AM EST 1,952.47 1,650.24 1,248
1/17/2018 10 AM EST 1,952.46 1,650.22 1,247
1/17/2018 11 AM EST 1,952.44 1,650.24 1,243
1/17/2018 12 PM EST 1,952.42 1,650.31 1,244
1/17/2018 1 PM EST 1,952.42 1,650.30 1,249
1/17/2018 2 PM EST 1,952.42 1,650.22 1,246
1/17/2018 3 PM EST 1,952.41 1,650.21 1,243
1/17/2018 4 PM EST 1,952.41 1,650.22 1,250
1/17/2018 5 PM EST 1,952.39 1,650.26 1,248
1/17/2018 6 PM EST 1,952.39 1,650.31 1,245
1/17/2018 7 PM EST 1,952.38 1,650.24 1,248
1/17/2018 8 PM EST 1,952.37 1,650.24 1,244
1/17/2018 9 PM EST 1,952.35 1,650.24 1,247
1/17/2018 10 PM EST 1,952.35 1,650.24 1,246
1/17/2018 11 PM EST 1,952.34 1,650.24 1,247
1/18/2018 12 AM EST 1,952.32 1,650.24 1,243
1/18/2018 1 AM EST 1,952.32 1,650.27 1,251
1/18/2018 2 AM EST 1,952.31 1,650.25 1,247
1/18/2018 3 AM EST 1,952.29 1,650.24 1,249
1/18/2018 4 AM EST 1,952.29 1,650.22 1,246
1/18/2018 5 AM EST 1,952.28 1,650.24 1,248
1/18/2018 6 AM EST 1,952.26 1,650.32 1,247
1/18/2018 7 AM EST 1,952.25 1,650.26 1,245
1/18/2018 8 AM EST 1,952.23 1,650.24 1,249
1/18/2018 9 AM EST 1,952.23 1,650.30 1,246
1/18/2018 10 AM EST 1,952.21 1,650.29 1,244
1/18/2018 11 AM EST 1,952.21 1,650.24 1,246
1/18/2018 12 PM EST 1,952.18 1,650.21 1,245
1/18/2018 1 PM EST 1,952.17 1,650.21 1,241
1/18/2018 2 PM EST 1,952.17 1,650.24 1,248
1/18/2018 3 PM EST 1,952.15 1,650.29 1,243
1/18/2018 4 PM EST 1,952.14 1,650.21 1,247
1/18/2018 5 PM EST 1,952.14 1,650.34 1,248
1/18/2018 6 PM EST 1,952.12 1,650.25 1,242
1/18/2018 7 PM EST 1,952.12 1,650.22 1,246
1/18/2018 8 PM EST 1,952.11 1,650.21 1,247
1/18/2018 9 PM EST 1,952.11 1,650.23 1,248
1/18/2018 10 PM EST 1,952.09 1,650.21 1,244
1/18/2018 11 PM EST 1,952.09 1,650.21 1,246
1/19/2018 12 AM EST 1,952.09 1,650.24 1,247

Elevations are in feet above sea level. Discharges are in cubic feet per second and are reported at the end of the hour.